Regional Weather Roundup
Issued by NWS New Orleans/Baton Rouge, LA

Home | Current Version | Previous Version | Graphics & Text | Print | Product List | Glossary On
Versions: 1 2 3 4 5 6 7 8 9 10 11 12 13 14 15 16 17 18 19 20 21 22 23 24 25 26 27 28 29 30 31 32 33 34 35 36 37 38 39 40 41 42 43 44 45 46 47 48 49 50
361
ASUS44 KLIX 301507
RWRLIX
NEW ORLEANS REGIONAL WEATHER ROUNDUP
NATIONAL WEATHER SERVICE NEW ORLEANS LA
1000 AM CDT MON MAR 30 2015

NOTE: "FAIR" INDICATES FEW OR NO CLOUDS BELOW 12,000 FEET WITH NO
      SIGNIFICANT WEATHER AND/OR OBSTRUCTIONS TO VISIBILITY.
      SKY/WX - SKY CONDITION AND SIGNIFICANT WEATHER.
      TMP - AIR TEMPERATURE.     DP    - DEWPOINT TEMPERATURE.
      RH  - RELATIVE HUMIDITY.   PRES  - PRESSURE.
      HI  - HEAT INDEX.          WCI   - WIND CHILL INDEX.

*  THESE STATIONS ARE NOT NWS OR FAA STATIONS AND ARE NOT UNDER
   NWS QUALITY CONTROL.

LAZ038-040-048-061>063-065>067-069-301600-
SOUTHEAST LOUISIANA

CITY           SKY/WX    TMP DP  RH WIND       PRES   REMARKS
N.O. AUDUBON     N/A     79  69  72 MISG        N/A
N.O. INTL ARPT MOSUNNY   73  64  73 W8        30.26R
N.O. LAKEFRONT SUNNY     72  62  71 NW3       30.27R
SLIDELL        SUNNY     73  64  73 SW8       30.25S
BATON ROUGE    MOSUNNY   74  63  68 W9        30.25R
BOOTHVILLE     SUNNY     74  65  73 S7        30.28R
BELLE CHASSE   MOSUNNY   72  63  73 SW6       30.26R
BOGALUSA*        N/A     73  63  70 W7        30.26S
GALLIANO*      MOSUNNY   75  67  77 CALM      30.27S
NEW ROADS*       N/A     71  63  76 W7        30.25S
GONZALES*      PTSUNNY   72  66  81 CALM      30.25S
HAMMOND*       SUNNY     73  63  68 NW9       30.26S
HOUMA*         MOSUNNY  N/A N/A N/A S7        30.26S
PORT FOURCHON* MOSUNNY   75  64  69 VRB5      30.30R

$$

MSZ070-080>082-301600-
SOUTHERN MISSISSIPPI

CITY           SKY/WX    TMP DP  RH WIND       PRES   REMARKS
MCCOMB         PTSUNNY   70  63  78 W10       30.25S
GULFPORT       MOSUNNY   75  62  64 W8        30.24F
BILOXI         SUNNY     75  63  66 SW7       30.25S
PASCAGOULA     MOSUNNY   75  62  64 W8        30.25S
STENNIS ARPT*  MOSUNNY   73  59  60 W5        30.26S

$$

COASTAL OBSERVATIONS
LAKE AND NEARSHORE STATIONS

STATION/POSITION TIME  TEMP    WIND        PRES    WAVE
                       AIR SEA DIR/SP/G            HT/PER
                 (UTC) (F)     (DEG/KT/KT) (MB)    (FT/S)
PASCAGOULA       1400   68     250/  7/ 10 1024.1
WAVELAND YACHT   1400   70 65  280/  5/  7 1024.3
GRAND ISLE       1430   71 67   30/  3/  4 1024.7
SOUTHWEST PASS   1400          210/  4/  6   N/A
NEW CANAL        1406   67      60/  1/  2 1024.8
SHELL BEACH      1400   68 69  110/  2/  3 1024.7

OFFSHORE STATIONS

STATION/POSITION TIME  TEMP    WIND        PRES    WAVE
                       AIR SEA DIR/SP/G            HT/PER
                 (UTC) (F)     (DEG/KT/KT) (MB)    (FT/S)
64 S DAUPHIN ISL 1450   71 70  200/ 10/ 12 1025.7    3/ 5

$$




USA.gov is the U.S. government's official web portal to all federal, state and local government web resources and services.